sat.trackr.live / text

‹ back to catalog

GEISAT PRECURSOR

NORAD 56934 · 2023-084C

PAYLOAD ACTIVE UNKNOWN

§ Identity

Operator
Country
SPN
Launch date
2023-06-12
Launch site
AFWTR
Launch vehicle
Mass (kg)
RCS (m²)

External: N2YO · Heavens-Above · Gunter

§ Orbital elements

Epoch: 2026-09-21T22:37:30.329760Z

Period
93.76 min
Inclination
97.6351°
Eccentricity
0.0005364
Mean motion
15.35823615 rev/d
Perigee alt
454.8 km
Apogee alt
462.1 km
Semi-major
6,836.6 km
B*
1.4544e-4
RAAN
49.2484°
Arg perigee
14.4717°
Mean anomaly
345.6679°
Rev number
18,237

§ Raw data

GEISAT PRECURSOR1 56934U 23084C   26264.94271215  .00004984  00000+0  14544-3 0  99902 56934  97.6351  49.2484 0005364  14.4717 345.6679 15.35823615182373

JSON: /api/v1/satellites/56934 · /tle

For live sub-satellite position, see the globe view (requires WebGL).

§ Visibility from observer

Set your observer location to see the next 7 days of passes ≥ 10°. The values pass through the URL so the page stays shareable.

No JS? Fill the form by hand. The geolocation button needs JavaScript.

§ Radio — SatNOGS DB

ModeDescriptionDownlinkUplink
FM Telemetry 401.400 MHz

1 transmitter · refreshed weekly from db.satnogs.org